TimeCST,TemperatureF,Dew PointF,Humidity,Sea Level PressureIn,VisibilityMPH,Wind Direction,Wind SpeedMPH,Gust SpeedMPH,PrecipitationIn,Events,Conditions,WindDirDegrees,DateUTC
12:53 AM,27.0,14.0,58,30.14,10.0,SSW,9.2,-,N/A,,Clear,200,2012-12-12 06:53:00
1:53 AM,24.1,14.0,65,30.14,10.0,South,9.2,-,N/A,,Clear,180,2012-12-12 07:53:00
2:53 AM,24.1,14.0,65,30.14,10.0,South,10.4,-,N/A,,Clear,190,2012-12-12 08:53:00
3:53 AM,28.0,16.0,61,30.13,10.0,South,11.5,-,N/A,,Clear,190,2012-12-12 09:53:00
4:53 AM,30.0,16.0,56,30.14,10.0,South,12.7,-,N/A,,Clear,190,2012-12-12 10:53:00
5:53 AM,28.0,15.1,58,30.15,10.0,SSW,10.4,-,N/A,,Clear,200,2012-12-12 11:53:00
6:53 AM,30.0,15.1,54,30.16,10.0,SSW,13.8,-,N/A,,Clear,200,2012-12-12 12:53:00
7:53 AM,30.9,16.0,54,30.17,10.0,SSW,12.7,-,N/A,,Partly Cloudy,200,2012-12-12 13:53:00
8:53 AM,35.1,16.0,46,30.19,10.0,SSW,15.0,-,N/A,,Partly Cloudy,200,2012-12-12 14:53:00
9:53 AM,39.9,15.1,36,30.22,10.0,SSW,18.4,24.2,N/A,,Partly Cloudy,210,2012-12-12 15:53:00
10:53 AM,44.1,15.1,31,30.20,10.0,SSW,18.4,24.2,N/A,,Partly Cloudy,200,2012-12-12 16:53:00
11:53 AM,48.0,12.9,24,30.17,10.0,SSW,24.2,31.1,N/A,,Partly Cloudy,200,2012-12-12 17:53:00
12:53 PM,48.9,12.0,23,30.16,10.0,SSW,18.4,-,N/A,,Partly Cloudy,210,2012-12-12 18:53:00
1:53 PM,50.0,10.9,21,30.13,9.0,South,19.6,27.6,N/A,,Partly Cloudy,180,2012-12-12 19:53:00
2:53 PM,50.0,9.0,19,30.12,10.0,South,17.3,-,N/A,,Partly Cloudy,190,2012-12-12 20:53:00
3:53 PM,48.0,7.0,19,30.12,10.0,SSW,19.6,28.8,N/A,,Partly Cloudy,200,2012-12-12 21:53:00
4:53 PM,45.0,8.1,22,30.11,10.0,South,15.0,-,N/A,,Partly Cloudy,180,2012-12-12 22:53:00
5:53 PM,43.0,10.0,26,30.10,10.0,South,16.1,-,N/A,,Partly Cloudy,170,2012-12-12 23:53:00
6:53 PM,41.0,12.0,31,30.12,10.0,South,12.7,-,N/A,,Clear,170,2012-12-13 00:53:00
7:53 PM,41.0,10.9,29,30.12,10.0,South,15.0,-,N/A,,Clear,170,2012-12-13 01:53:00
8:53 PM,42.1,10.0,27,30.13,10.0,South,18.4,-,N/A,,Clear,190,2012-12-13 02:53:00
9:53 PM,39.9,10.0,29,30.14,10.0,South,12.7,-,N/A,,Clear,180,2012-12-13 03:53:00
10:53 PM,39.9,10.0,29,30.14,10.0,South,15.0,-,N/A,,Clear,190,2012-12-13 04:53:00
11:53 PM,42.1,10.0,27,30.14,10.0,South,17.3,27.6,N/A,,Clear,190,2012-12-13 05:53:00